Cookie Consent by FreePrivacyPolicy.com
Facebook Twitter

Wetterstation Büchel (Flugplatz)

Messwerte
  Temperatur Wetter Niederschlag Luftdruck Wind
So, 06:20 Uhr 9° - - 1026 hPa 8 km/h N
So, 06:00 Uhr 9° - - 1026.6 hPa 7 km/h N
So, 05:20 Uhr 9° - - 1025 hPa 8 km/h N
So, 05:00 Uhr 9° - - 1026.3 hPa 4 km/h NW
So, 04:20 Uhr 9° - - 1025 hPa 3 km/h NW
So, 04:00 Uhr 10° - - 1026.1 hPa 7 km/h N
So, 03:20 Uhr 10° - - 1025 hPa 8 km/h N
So, 03:00 Uhr 11° - - 1026.2 hPa 7 km/h N
So, 02:20 Uhr 11° - - 1026 hPa 8 km/h NW
So, 02:00 Uhr 12° - - 1026 hPa 7 km/h NW
So, 01:20 Uhr 12° - - 1025 hPa 8 km/h NW
So, 01:00 Uhr 13° - - 1025.5 hPa 11 km/h NW
So, 00:20 Uhr 13° - - 1025 hPa 13 km/h N
So, 00:00 Uhr 14° - - 1024.7 hPa 14 km/h N
Sa, 23:20 Uhr 14° - - 1025 hPa 11 km/h N
Sa, 23:00 Uhr 15° - - 1023.9 hPa 14 km/h NW
Sa, 22:20 Uhr 15° - - 1024 hPa 11 km/h NW
Sa, 22:00 Uhr 16° - - 1023.2 hPa 11 km/h N
Sa, 21:20 Uhr 17° - - 1023 hPa 10 km/h N
Sa, 21:00 Uhr 18° - - 1022.3 hPa 18 km/h NW

Alle Zeitangaben MESZ